OBJECT D, 61241

Orbit data source: Space-Track

You're viewing an Uncataloged Satellite

Recently launched and/or uncataloged satellites may have evolving metadata. Metadata may include but not limited to: Owner, Maufacturer, Bus, Motor, and Mission.

OBJECT D, 61241 is a satellite owned by Yunyao yuhang (CN) in SSO that was launched on Tue, 24 Sep 2024 UTC via a LIJIAN-1 launch vehicle from the Jiuquan Satellite Launch Center, China (JSC). Unknown objects in Earth's orbit typically refer to objects detected orbiting the Earth but have not yet been identified or cataloged. These objects could be anything from previously untracked satellites, spent rocket stages, debris from satellite collisions, or even natural meteoroids temporarily captured by Earth's gravity.

Loading next visibility...
Identifier
61241, 2024-174D
Orbit
SSO
Last TLE update
7 hours ago
Origin
Flag of CNYYAO (CN / PRC)
Manufacturer
Changguang WJ
Mission
Operational Commercial Weather
Bus & Motor
YY-1, Unknown motor
Mass
~50 kg wet, ~50 kg dry
Launch date (UTC)
2024-09-24 (9 months ago)
Launch vehicle
LIJIAN-1
Launch site
Jiuquan Satellite Launch Center, China (JSC)
Object type
Unknown
Shape & HBR
Box + 1 Pan, 5 m
Radar Cross Section
5.339 m², Medium (>0.1 m² and < 1m²)

Expand to show TLE details & history

TLE from 7 hours ago
0 OBJECT D
1 61241U 24174D   25182.88797718  .00006002  00000-0  25751-3 0  9996
2 61241  97.4452 190.6152 0014471  33.0783 327.1356 15.23007589 42487
Epoch: 2025-07-01T21:18Z
TLE epoch observation values (Epoch: 2025-07-01T21:18:41.228Z)
Latitude
0.00001°
Longitude
-49.23356°
Altitude
491.514 km
Speed
7.624 km/s
True Right ascension
12h 42m 27s
True Declination
0° 00' 00"
Sunlit
Object was in daylight at epoch
Visualization orbit readout
Latitude
-57.41182°
Longitude
119.33948°
Altitude
527.981 km
Speed
7.593 km/s
Apparent Right ascension
02h 29m 05s
Apparent Declination
-53° 39' 16"
Sunlit
Object is in full shadow
Visualization observer readout
Local Sidereal Time
16:21:04
Azimuth
135.389° SSE
Elevation
-66.665°
Doppler factor
1
Orbital elements
Apogee altitude
503.683 km
Perigee altitude
483.794 km
Semi-major axis
6,871.875 km
Eccentricity
0.00145
Inclination
97.4452°
RAAN
190.6152°
Arg. of periapsis
33.0783°
True anomaly
Unknown
Mean anomaly
327.1356°
Eccentric anomaly
Unknown
Mean motion
3.81005 °/min
Orbital period
94.49 mins
BSTAR
0.00025751
Loading maneuver chart data...
Loading SW <> Apogee altitude chart data...
Loading historical data...
Loading historical data...
Loading historical data...
Loading historical data...
Loading historical data...
Loading historical data...
Loading historical data...

OBJECT D Visibility forecast

Observer location: undefined°, undefined°

Span
Click to sort rows by Start time (UTC) header in descending order
Start Az.
Max El. time (UTC)
Max El. Az.
Max El.
End time (UTC)
End Az.
6 mins2025-07-02 13:38:37.456Z359.778° N2025-07-02 13:41:37.456Z254.947° W38.791°2025-07-02 13:44:37.456Z206.468° SW
5 mins2025-07-03 00:15:37.456Z140.973° SSE2025-07-03 00:17:37.456Z86.336° E36.034°2025-07-03 00:20:37.456Z3.279° NNE
|